Home > Weather > Linares > Past weeks

Flag for Spain Weather for the Past 2 Weeks in Linares, Spain

Now
52 °F

Rain. Partly cloudy.


Feels Like: 48 °F
Forecast: 43 / 57 °F
Wind: 10 mph from West

Location: Granada / Aeropuerto

Current Time: Feb 7, 2016 at 7:52:08 AM

Latest Report: Feb 7, 2016 at 7:30 AM


Visibility: 2 mi

Pressure: 30.09 "Hg

Humidity: 100%

Dew point: 52 °F

Location of LinaresLocation

Historic Weather in Linares — Graph

°F

Linares Temperature Yesterday

Maximum temperature yesterday: 66 °F (at 4:30 PM)
Minimum temperature yesterday: 37 °F (at 7:30 AM)
Average temperature yesterday: 53 °F

High & Low Weather Summary for the Past Weeks

 TemperatureHumidityPressure
High72 °F (Feb 1, 4:00 PM)100% (Jan 23, 6:00 AM)30.57 "Hg (Jan 23, 6:00 AM)
Low32 °F (Jan 27, 6:00 AM)31% (Feb 1, 4:00 PM)30.09 "Hg (Feb 7, 6:00 AM)
Average51 °F70%30.41 "Hg
* Reported Jan 23 6:00 AM — Feb 7 6:30 AM, Linares, Weather by CustomWeather, © 2016

Note: Actual official high and low records may vary slightly from our data, if they occured in-between our weather recording intervals... More about our weather records

Advertising

Linares Weather History for the Previous 24 Hours

 ConditionsComfort  
Time TempWeatherWind HumidityBarometerVisibility
6:30 AM
Sun, Feb 7
50 °FPartly cloudy.9 mph100%30.09 "Hg2 mi
6:00 AM52 °FPartly cloudy.9 mph88%30.09 "Hg4 mi
11:00 PM
Sat, Feb 6
55 °FPassing clouds.2 mph72%30.18 "HgN/A
10:00 PM55 °FPassing clouds.2 mph63%30.15 "HgN/A
9:30 PM55 °FPassing clouds.3 mph63%30.15 "HgN/A
9:00 PM55 °FPassing clouds.6 mph63%30.15 "HgN/A
8:30 PM54 °FPassing clouds.5 mph67%30.15 "HgN/A
8:00 PM57 °FPassing clouds.5 mph59%30.15 "HgN/A
7:30 PM57 °FPassing clouds.3 mph59%30.15 "HgN/A
7:00 PM59 °FPassing clouds.6 mph55%30.15 "HgN/A
6:30 PM61 °FPassing clouds.8 mph48%30.15 "HgN/A
6:00 PM63 °FPassing clouds.12 mph45%30.15 "HgN/A
5:30 PM64 °FPassing clouds.6 mph43%30.15 "HgN/A
5:00 PM66 °FPassing clouds.10 mph37%30.15 "HgN/A
4:30 PM66 °FPassing clouds.10 mph37%30.15 "HgN/A
4:00 PM64 °FPassing clouds.8 mph43%30.15 "HgN/A
3:30 PM64 °FPassing clouds.7 mph43%30.15 "HgN/A
3:00 PM64 °FPassing clouds.7 mph43%30.18 "HgN/A
2:30 PM63 °FPartly sunny.8 mph49%30.18 "HgN/A
2:00 PM64 °FPartly sunny.9 mph46%30.21 "HgN/A
1:30 PM63 °FPartly sunny.14 mph45%30.21 "HgN/A
1:00 PM63 °FPartly sunny.18 mph45%30.21 "HgN/A
12:30 PM55 °FScattered clouds.No wind63%30.24 "HgN/A
12:00 PM52 °FPassing clouds.1 mph72%30.24 "HgN/A
11:30 AM50 °FPassing clouds.No wind71%30.24 "HgN/A
11:00 AM46 °FPassing clouds.No wind76%30.24 "HgN/A
10:30 AM45 °FPassing clouds.1 mph81%30.27 "HgN/A
10:00 AM43 °FPassing clouds.1 mph87%30.24 "HgN/A
9:30 AM41 °FPassing clouds.No wind93%30.24 "HgN/A
9:00 AM37 °FPassing clouds.1 mph93%30.24 "HgN/A
8:30 AM37 °FPassing clouds.No wind93%30.24 "HgN/A
8:00 AM37 °FClear.No wind93%30.24 "Hg10 mi
7:30 AM37 °FClear.No wind93%30.24 "Hg10 mi
7:00 AM39 °FClear.No wind93%30.24 "Hg10 mi
Weather by CustomWeather, © 2016

See weather overviewHow to use our weather pages